| time (UTC) | temp F | wind direction | speed MPH | gust MPH | rain 1hr in | rain 24hr in | rain mn in | humidity % | barometer mb |
| 20260508192008 | 57 | 214 | 2.0 | 8.0 | 0.00 | 0.00 | 0.00 | 63 | 1009.4 |
| 20260508191525 | 57 | 190 | 3.0 | 8.0 | 0.00 | 0.00 | 0.00 | 61 | 1009.5 |
| 20260508191006 | 57 | 215 | 3.0 | 6.0 | 0.00 | 0.00 | 0.00 | 61 | 1009.6 |
| 20260508190507 | 57 | 184 | 2.0 | 6.0 | 0.00 | 0.00 | 0.00 | 61 | 1009.5 |
| 20260508190023 | 57 | 206 | 3.0 | 8.0 | 0.00 | 0.00 | 0.00 | 59 | 1009.5 |
| 20260508185505 | 58 | 172 | 3.0 | 8.0 | 0.00 | 0.00 | 0.00 | 59 | 1009.5 |
| 20260508185011 | 58 | 173 | 2.0 | 8.0 | 0.00 | 0.00 | 0.00 | 56 | 1009.4 |
| 20260508184525 | 58 | 179 | 3.0 | 7.0 | 0.00 | 0.00 | 0.00 | 56 | 1009.4 |
| 20260508184011 | 58 | 174 | 3.0 | 7.0 | 0.00 | 0.00 | 0.00 | 54 | 1009.4 |
| 20260508183517 | 58 | 187 | 4.0 | 7.0 | 0.00 | 0.00 | 0.00 | 58 | 1009.5 |
| 20260508183024 | 58 | 205 | 3.0 | 7.0 | 0.00 | 0.00 | 0.00 | 58 | 1009.5 |
| 20260508182505 | 58 | 206 | 3.0 | 9.0 | 0.00 | 0.00 | 0.00 | 55 | 1009.6 |
| 20260508182009 | 58 | 158 | 3.0 | 9.0 | 0.00 | 0.00 | 0.00 | 52 | 1009.6 |
| 20260508181517 | 59 | 229 | 3.0 | 7.0 | 0.00 | 0.00 | 0.00 | 52 | 1009.7 |
| 20260508181008 | 59 | 215 | 3.0 | 7.0 | 0.00 | 0.00 | 0.00 | 53 | 1009.8 |
| 20260508180510 | 0 | 186 | 2.0 | 6.0 | 0.00 | 0.00 | 0.00 | 51 | 1009.6 |
| 20260508180023 | 0 | 174 | 3.0 | 6.0 | 0.00 | 0.00 | 0.00 | 52 | 1009.7 |
| 20260508175507 | 59 | 158 | 2.0 | 6.0 | 0.00 | 0.00 | 0.00 | 51 | 1009.7 |
| 20260508175012 | 59 | 163 | 3.0 | 6.0 | 0.00 | 0.00 | 0.00 | 47 | 1009.8 |
| 20260508174523 | 60 | 144 | 3.0 | 6.0 | 0.00 | 0.00 | 0.00 | 46 | 1009.8 |
| 20260508174015 | 60 | 186 | 2.0 | 5.0 | 0.00 | 0.00 | 0.00 | 48 | 1009.8 |
| 20260508173509 | 60 | 140 | 2.0 | 5.0 | 0.00 | 0.00 | 0.00 | 47 | 1009.9 |
| 20260508173025 | 60 | 184 | 1.0 | 5.0 | 0.00 | 0.00 | 0.00 | 48 | 1009.8 |
| 20260508172514 | 60 | 165 | 1.0 | 3.0 | 0.00 | 0.00 | 0.00 | 46 | 1009.8 |
| 20260508172011 | 60 | 162 | 1.0 | 5.0 | 0.00 | 0.00 | 0.00 | 45 | 1009.8 |
| 20260508171516 | 59 | 129 | 2.0 | 5.0 | 0.00 | 0.00 | 0.00 | 46 | 1009.8 |
| 20260508171015 | 60 | 174 | 2.0 | 5.0 | 0.00 | 0.00 | 0.00 | 42 | 1009.8 |
| 20260508170507 | 61 | 146 | 2.0 | 5.0 | 0.00 | 0.00 | 0.00 | 41 | 1009.9 |
| 20260508170019 | 61 | 242 | 2.0 | 8.0 | 0.00 | 0.00 | 0.00 | 41 | 1010.0 |
| 20260508165506 | 61 | 141 | 1.0 | 8.0 | 0.00 | 0.00 | 0.00 | 43 | 1009.8 |
| 20260508165010 | 61 | 189 | 3.0 | 7.0 | 0.00 | 0.00 | 0.00 | 42 | 1009.9 |
| 20260508164524 | 62 | 179 | 3.0 | 7.0 | 0.00 | 0.00 | 0.00 | 43 | 1010.1 |
| 20260508164003 | 61 | 214 | 1.0 | 6.0 | 0.00 | 0.00 | 0.00 | 42 | 1010.0 |
| 20260508163502 | 61 | 167 | 2.0 | 4.0 | 0.00 | 0.00 | 0.00 | 39 | 1010.2 |
| 20260508163006 | 61 | 161 | 1.0 | 4.0 | 0.00 | 0.00 | 0.00 | 43 | 1010.1 |
| 20260508162504 | 61 | 160 | 2.0 | 5.0 | 0.00 | 0.00 | 0.00 | 37 | 1010.3 |
| 20260508162007 | 61 | 205 | 2.0 | 5.0 | 0.00 | 0.00 | 0.00 | 38 | 1010.2 |
| 20260508161509 | 61 | 174 | 1.0 | 4.0 | 0.00 | 0.00 | 0.00 | 35 | 1010.3 |
| 20260508161008 | 61 | 177 | 2.0 | 4.0 | 0.00 | 0.00 | 0.00 | 34 | 1010.4 |
| 20260508160507 | 62 | 174 | 2.0 | 4.0 | 0.00 | 0.00 | 0.00 | 36 | 1010.3 |
| 20260508160022 | 62 | 210 | 2.0 | 5.0 | 0.00 | 0.00 | 0.00 | 35 | 1010.3 |
| 20260508155511 | 62 | 193 | 2.0 | 5.0 | 0.00 | 0.00 | 0.00 | 34 | 1010.4 |
| 20260508155010 | 62 | 212 | 1.0 | 4.0 | 0.00 | 0.00 | 0.00 | 37 | 1010.3 |
| 20260508154505 | 61 | 163 | 1.0 | 3.0 | 0.00 | 0.00 | 0.00 | 36 | 1010.3 |
| 20260508154006 | 61 | 169 | 1.0 | 3.0 | 0.00 | 0.00 | 0.00 | 35 | 1010.4 |
| 20260508153503 | 62 | 171 | 1.0 | 4.0 | 0.00 | 0.00 | 0.00 | 35 | 1010.4 |
| 20260508153006 | 62 | 120 | 1.0 | 4.0 | 0.00 | 0.00 | 0.00 | 37 | 1010.4 |
| 20260508152506 | 62 | 164 | 1.0 | 3.0 | 0.00 | 0.00 | 0.00 | 39 | 1010.5 |
| 20260508152006 | 62 | 179 | 1.0 | 3.0 | 0.00 | 0.00 | 0.00 | 38 | 1010.6 |
| 20260508151508 | 62 | 220 | 1.0 | 3.0 | 0.00 | 0.00 | 0.00 | 36 | 1010.5 |
| 20260508151011 | 61 | 218 | 1.0 | 3.0 | 0.00 | 0.00 | 0.00 | 40 | 1010.5 |
| 20260508150509 | 60 | 148 | 1.0 | 3.0 | 0.00 | 0.00 | 0.00 | 37 | 1010.6 |
| 20260508150034 | 60 | 160 | 1.0 | 3.0 | 0.00 | 0.00 | 0.00 | 39 | 1010.7 |
| 20260508145507 | 61 | 113 | 1.0 | 3.0 | 0.00 | 0.00 | 0.00 | 39 | 1010.7 |
| 20260508145008 | 61 | 153 | 1.0 | 4.0 | 0.00 | 0.00 | 0.00 | 42 | 1010.7 |
| 20260508144516 | 60 | 207 | 2.0 | 4.0 | 0.00 | 0.00 | 0.00 | 45 | 1010.7 |
| 20260508144007 | 60 | 158 | 1.0 | 3.0 | 0.00 | 0.00 | 0.00 | 43 | 1010.7 |
| 20260508143507 | 60 | 155 | 1.0 | 2.0 | 0.00 | 0.01 | 0.00 | 42 | 1010.7 |
| 20260508143009 | 59 | 168 | 1.0 | 2.0 | 0.00 | 0.01 | 0.00 | 1010.7 | |
| 20260508142505 | 59 | 188 | 1.0 | 2.0 | 0.00 | 0.01 | 0.00 | 49 | 1010.8 |
| 20260508142003 | 58 | 193 | 1.0 | 2.0 | 0.00 | 0.01 | 0.00 | 49 | 1010.8 |
| 20260508141508 | 57 | 162 | 1.0 | 3.0 | 0.00 | 0.01 | 0.00 | 49 | 1010.8 |
| 20260508141005 | 56 | 170 | 1.0 | 3.0 | 0.00 | 0.01 | 0.00 | 46 | 1010.8 |
| 20260508140509 | 56 | 151 | 1.0 | 3.0 | 0.00 | 0.01 | 0.00 | 49 | 1010.8 |
| 20260508140021 | 57 | 167 | 1.0 | 4.0 | 0.00 | 0.01 | 0.00 | 50 | 1010.8 |
| 20260508135504 | 57 | 146 | 1.0 | 4.0 | 0.00 | 0.01 | 0.00 | 49 | 1010.8 |
| 20260508135005 | 57 | 214 | 1.0 | 4.0 | 0.00 | 0.01 | 0.00 | 48 | 1010.9 |
| 20260508134516 | 57 | 158 | 1.0 | 2.0 | 0.00 | 0.01 | 0.00 | 47 | 1010.9 |
| 20260508134008 | 57 | 212 | 0.0 | 2.0 | 0.00 | 0.01 | 0.00 | 50 | 1010.9 |
| 20260508133512 | 56 | 205 | 1.0 | 3.0 | 0.00 | 0.01 | 0.00 | 50 | 1010.9 |
| 20260508133019 | 56 | 222 | 1.0 | 3.0 | 0.00 | 0.01 | 0.00 | 49 | 1010.9 |
| 20260508132507 | 56 | 210 | 0.0 | 2.0 | 0.00 | 0.01 | 0.00 | 50 | 1010.9 |
| 20260508132008 | 56 | 226 | 1.0 | 2.0 | 0.00 | 0.01 | 0.00 | 51 | 1010.8 |
| 20260508131506 | 56 | 224 | 1.0 | 3.0 | 0.00 | 0.01 | 0.00 | 50 | 1010.8 |
| 20260508131007 | 56 | 319 | 0.0 | 3.0 | 0.00 | 0.01 | 0.00 | 45 | 1010.7 |
| 20260508130505 | 56 | 228 | 1.0 | 3.0 | 0.00 | 0.01 | 0.00 | 49 | 1010.7 |
| 20260508130010 | 56 | 219 | 1.0 | 3.0 | 0.00 | 0.01 | 0.00 | 49 | 1010.7 |
| 20260508125508 | 56 | 255 | 0.0 | 3.0 | 0.00 | 0.01 | 0.00 | 49 | 1010.7 |
| 20260508125004 | 55 | 269 | 1.0 | 2.0 | 0.00 | 0.01 | 0.00 | 53 | 1010.7 |
| 20260508124513 | 54 | 218 | 1.0 | 2.0 | 0.00 | 0.01 | 0.00 | 53 | 1010.7 |
| 20260508124006 | 53 | 233 | 0.0 | 2.0 | 0.00 | 0.01 | 0.00 | 55 | 1010.7 |
| 20260508123505 | 52 | 225 | 1.0 | 2.0 | 0.00 | 0.01 | 0.00 | 58 | 1010.8 |
| 20260508123020 | 52 | 226 | 0.0 | 2.0 | 0.00 | 0.02 | 0.00 | 61 | 1010.8 |
| 20260508122508 | 51 | 226 | 1.0 | 2.0 | 0.00 | 0.03 | 0.00 | 59 | 1010.8 |
| 20260508122011 | 51 | 228 | 0.0 | 2.0 | 0.00 | 0.03 | 0.00 | 61 | 1010.8 |
| 20260508121523 | 51 | 229 | 0.0 | 2.0 | 0.00 | 0.03 | 0.00 | 58 | 1010.6 |
| 20260508121007 | 51 | 222 | 0.0 | 2.0 | 0.00 | 0.03 | 0.00 | 61 | 1010.6 |
| 20260508120507 | 51 | 226 | 1.0 | 2.0 | 0.00 | 0.03 | 0.00 | 58 | 1010.7 |
| 20260508120007 | 51 | 214 | 0.0 | 2.0 | 0.00 | 0.03 | 0.00 | 64 | 1010.7 |
| 20260508115505 | 51 | 214 | 0.0 | 2.0 | 0.00 | 0.03 | 0.00 | 61 | 1010.8 |
| 20260508115004 | 50 | 214 | 0.0 | 3.0 | 0.00 | 0.03 | 0.00 | 61 | 1010.8 |
| 20260508114512 | 50 | 214 | 1.0 | 3.0 | 0.00 | 0.03 | 0.00 | 62 | 1010.9 |
| 20260508114007 | 50 | 219 | 1.0 | 2.0 | 0.00 | 0.03 | 0.00 | 65 | 1010.9 |
| 20260508113505 | 50 | 218 | 0.0 | 2.0 | 0.00 | 0.04 | 0.00 | 68 | 1010.8 |
| 20260508113018 | 49 | 218 | 0.0 | 2.0 | 0.00 | 0.04 | 0.00 | 67 | 1010.8 |
| 20260508112509 | 49 | 218 | 0.0 | 2.0 | 0.00 | 0.04 | 0.00 | 70 | 1010.7 |
| 20260508112009 | 48 | 218 | 0.0 | 2.0 | 0.00 | 0.04 | 0.00 | 71 | 1010.6 |
| 20260508111521 | 48 | 218 | 0.0 | 2.0 | 0.00 | 0.04 | 0.00 | 71 | 1010.6 |
| 20260508111009 | 47 | 218 | 0.0 | 2.0 | 0.00 | 0.04 | 0.00 | 71 | 1010.6 |
| 20260508110507 | 47 | 218 | 0.0 | 2.0 | 0.00 | 0.04 | 0.00 | 71 | 1010.7 |
| 20260508110026 | 47 | 218 | 0.0 | 2.0 | 0.00 | 0.04 | 0.00 | 72 | 1010.6 |
| 20260508105507 | 46 | 218 | 0.0 | 2.0 | 0.00 | 0.05 | 0.00 | 72 | 1010.6 |
| 20260508105010 | 46 | 218 | 0.0 | 2.0 | 0.00 | 0.05 | 0.00 | 74 | 1010.6 |
| 20260508104506 | 45 | 218 | 0.0 | 2.0 | 0.00 | 0.05 | 0.00 | 74 | 1010.4 |
| 20260508104003 | 45 | 218 | 0.0 | 2.0 | 0.00 | 0.05 | 0.00 | 75 | 1010.4 |
| 20260508103504 | 45 | 218 | 0.0 | 2.0 | 0.00 | 0.06 | 0.00 | 73 | 1010.3 |
| 20260508103014 | 45 | 218 | 0.0 | 2.0 | 0.00 | 0.06 | 0.00 | 73 | 1010.3 |
| 20260508102507 | 45 | 218 | 0.0 | 2.0 | 0.00 | 0.06 | 0.00 | 73 | 1010.2 |
| 20260508102009 | 44 | 218 | 0.0 | 2.0 | 0.00 | 0.07 | 0.00 | 73 | 1010.1 |
| 20260508101518 | 44 | 218 | 0.0 | 2.0 | 0.00 | 0.07 | 0.00 | 74 | 1010.1 |
| 20260508101013 | 44 | 218 | 0.0 | 2.0 | 0.00 | 0.07 | 0.00 | 75 | 1009.9 |
| 20260508100508 | 44 | 218 | 0.0 | 2.0 | 0.00 | 0.07 | 0.00 | 73 | 1009.9 |
| 20260508100025 | 44 | 218 | 0.0 | 2.0 | 0.00 | 0.07 | 0.00 | 74 | 1009.9 |
| 20260508095507 | 44 | 218 | 0.0 | 2.0 | 0.00 | 0.07 | 0.00 | 73 | 1009.8 |
| 20260508095010 | 44 | 218 | 0.0 | 2.0 | 0.00 | 0.07 | 0.00 | 73 | 1009.8 |
| 20260508094528 | 43 | 218 | 0.0 | 2.0 | 0.00 | 0.08 | 0.00 | 74 | 1009.7 |
| 20260508094012 | 43 | 218 | 0.0 | 2.0 | 0.00 | 0.08 | 0.00 | 73 | 1009.6 |
| 20260508093508 | 43 | 218 | 1.0 | 2.0 | 0.00 | 0.08 | 0.00 | 73 | 1009.7 |
| 20260508093010 | 43 | 218 | 0.0 | 2.0 | 0.00 | 0.09 | 0.00 | 73 | 1009.7 |
| 20260508092504 | 43 | 218 | 0.0 | 2.0 | 0.00 | 0.11 | 0.00 | 73 | 1009.7 |
| 20260508092007 | 43 | 218 | 0.0 | 2.0 | 0.00 | 0.12 | 0.00 | 73 | 1009.6 |
| 20260508091517 | 43 | 218 | 1.0 | 2.0 | 0.00 | 0.19 | 0.00 | 74 | 1009.6 |
| 20260508091006 | 43 | 217 | 1.0 | 2.0 | 0.00 | 0.22 | 0.00 | 75 | 1009.6 |
| 20260508090506 | 42 | 217 | 0.0 | 2.0 | 0.00 | 0.23 | 0.00 | 75 | 1009.5 |
| 20260508090017 | 42 | 217 | 0.0 | 2.0 | 0.00 | 0.25 | 0.00 | 76 | 1009.4 |
| 20260508085509 | 42 | 217 | 0.0 | 2.0 | 0.00 | 0.25 | 0.00 | 76 | 1009.2 |
| 20260508085008 | 42 | 217 | 0.0 | 2.0 | 0.00 | 0.25 | 0.00 | 74 | 1009.1 |
| 20260508084521 | 42 | 217 | 0.0 | 2.0 | 0.00 | 0.26 | 0.00 | 74 | 1009.0 |
| 20260508084008 | 42 | 217 | 0.0 | 2.0 | 0.00 | 0.27 | 0.00 | 74 | 1009.0 |
| 20260508083507 | 42 | 217 | 0.0 | 2.0 | 0.00 | 0.28 | 0.00 | 74 | 1009.0 |
| 20260508083027 | 42 | 217 | 0.0 | 2.0 | 0.00 | 0.35 | 0.00 | 75 | 1009.0 |
| 20260508082510 | 42 | 217 | 0.0 | 2.0 | 0.00 | 0.37 | 0.00 | 75 | 1009.0 |
| 20260508082013 | 43 | 217 | 0.0 | 0.0 | 0.00 | 0.37 | 0.00 | 75 | 1008.9 |
| 20260508081527 | 43 | 217 | 0.0 | 0.0 | 0.00 | 0.37 | 0.00 | 74 | 1008.8 |
| 20260508081006 | 43 | 217 | 0.0 | 0.0 | 0.00 | 0.37 | 0.00 | 73 | 1008.7 |
| 20260508080505 | 44 | 217 | 0.0 | 0.0 | 0.00 | 0.37 | 0.00 | 72 | 1008.6 |
| 20260508080028 | 44 | 217 | 0.0 | 0.0 | 0.00 | 0.37 | 0.00 | 71 | 1008.5 |
| 20260508075508 | 45 | 217 | 0.0 | 0.0 | 0.00 | 0.37 | 0.00 | 70 | 1008.4 |
| 20260508075008 | 45 | 217 | 0.0 | 0.0 | 0.00 | 0.37 | 0.00 | 67 | 1008.4 |
| 20260508074521 | 45 | 217 | 0.0 | 0.0 | 0.00 | 0.37 | 0.00 | 66 | 1008.3 |
| 20260508074003 | 46 | 217 | 0.0 | 2.0 | 0.00 | 0.37 | 0.00 | 65 | 1008.3 |
| 20260508073503 | 46 | 217 | 0.0 | 2.0 | 0.00 | 0.37 | 0.00 | 64 | 1008.3 |
| 20260508073005 | 46 | 217 | 0.0 | 2.0 | 0.00 | 0.38 | 0.00 | 63 | 1008.2 |
| 20260508072505 | 46 | 217 | 0.0 | 2.0 | 0.00 | 0.38 | 0.00 | 64 | 1008.2 |
| 20260508072004 | 46 | 217 | 0.0 | 2.0 | 0.00 | 0.38 | 0.00 | 62 | 1008.1 |
| 20260508071513 | 47 | 217 | 0.0 | 2.0 | 0.00 | 0.38 | 0.00 | 63 | 1008.1 |
| 20260508071006 | 47 | 217 | 0.0 | 2.0 | 0.00 | 0.38 | 0.00 | 63 | 1008.1 |
| 20260508070510 | 47 | 217 | 0.0 | 2.0 | 0.00 | 0.38 | 0.00 | 63 | 1008.1 |
| 20260508070020 | 47 | 217 | 0.0 | 2.0 | 0.00 | 0.38 | 0.00 | 63 | 1008.1 |
| 20260508065507 | 47 | 217 | 0.0 | 2.0 | 0.00 | 0.38 | 0.00 | 64 | 1008.1 |
| 20260508065006 | 47 | 217 | 0.0 | 2.0 | 0.00 | 0.38 | 0.00 | 63 | 1008.1 |
| 20260508064535 | 47 | 217 | 0.0 | 2.0 | 0.00 | 0.38 | 0.00 | 64 | 1008.1 |
| 20260508064003 | 47 | 217 | 0.0 | 2.0 | 0.00 | 0.38 | 0.00 | 65 | 1008.0 |
| 20260508063505 | 47 | 200 | 0.0 | 2.0 | 0.00 | 0.38 | 0.00 | 65 | 1007.9 |
| 20260508063004 | 47 | 200 | 0.0 | 2.0 | 0.00 | 0.38 | 0.00 | 65 | 1007.9 |
| 20260508062505 | 48 | 200 | 0.0 | 2.0 | 0.00 | 0.38 | 0.00 | 64 | 1007.8 |
| 20260508062003 | 48 | 200 | 0.0 | 2.0 | 0.00 | 0.38 | 0.00 | 63 | 1007.7 |
| 20260508061506 | 48 | 200 | 0.0 | 2.0 | 0.00 | 0.38 | 0.00 | 62 | 1007.7 |
| 20260508061004 | 49 | 200 | 0.0 | 2.0 | 0.00 | 0.38 | 0.00 | 62 | 1007.8 |
| 20260508060508 | 49 | 200 | 0.0 | 2.0 | 0.00 | 0.38 | 0.00 | 59 | 1007.7 |
| 20260508060011 | 49 | 200 | 0.0 | 2.0 | 0.00 | 0.38 | 0.00 | 59 | 1007.7 |
| 20260508055504 | 49 | 197 | 0.0 | 2.0 | 0.00 | 0.38 | 0.00 | 59 | 1007.7 |
| 20260508055004 | 49 | 236 | 0.0 | 2.0 | 0.00 | 0.38 | 0.00 | 59 | 1007.7 |
| 20260508054530 | 49 | 224 | 0.0 | 3.0 | 0.00 | 0.38 | 0.00 | 61 | 1007.8 |
| 20260508054006 | 49 | 221 | 1.0 | 3.0 | 0.00 | 0.38 | 0.00 | 60 | 1007.7 |
| 20260508053508 | 49 | 222 | 0.0 | 2.0 | 0.00 | 0.38 | 0.00 | 62 | 1007.7 |
| 20260508053020 | 49 | 222 | 0.0 | 2.0 | 0.00 | 0.38 | 0.00 | 60 | 1007.6 |
| 20260508052503 | 49 | 222 | 0.0 | 2.0 | 0.00 | 0.38 | 0.00 | 61 | 1007.7 |
| 20260508052006 | 49 | 221 | 0.0 | 2.0 | 0.00 | 0.38 | 0.00 | 62 | 1007.7 |
| 20260508051504 | 49 | 221 | 0.0 | 2.0 | 0.00 | 0.38 | 0.00 | 65 | 1007.7 |
| 20260508051006 | 49 | 221 | 0.0 | 2.0 | 0.00 | 0.38 | 0.00 | 65 | 1007.7 |
| 20260508050504 | 49 | 221 | 0.0 | 2.0 | 0.00 | 0.38 | 0.00 | 62 | 1007.7 |
| 20260508050010 | 49 | 221 | 0.0 | 2.0 | 0.00 | 0.38 | 0.00 | 63 | 1007.8 |
| 20260508045504 | 49 | 221 | 0.0 | 2.0 | 0.00 | 0.38 | 0.00 | 62 | 1007.8 |
| 20260508045004 | 49 | 221 | 0.0 | 2.0 | 0.00 | 0.38 | 0.00 | 62 | 1007.8 |
| 20260508044511 | 49 | 221 | 0.0 | 2.0 | 0.00 | 0.38 | 0.00 | 63 | 1007.7 |
| 20260508044004 | 49 | 221 | 0.0 | 2.0 | 0.00 | 0.38 | 0.00 | 62 | 1007.7 |
| 20260508043507 | 49 | 221 | 0.0 | 2.0 | 0.00 | 0.38 | 0.00 | 62 | 1007.7 |
| 20260508043020 | 49 | 221 | 0.0 | 2.0 | 0.00 | 0.38 | 0.00 | 60 | 1007.8 |
| 20260508042507 | 49 | 221 | 0.0 | 2.0 | 0.00 | 0.38 | 0.00 | 61 | 1007.9 |
| 20260508042008 | 49 | 221 | 0.0 | 2.0 | 0.00 | 0.38 | 0.00 | 60 | 1007.8 |
| 20260508041524 | 49 | 221 | 0.0 | 2.0 | 0.00 | 0.38 | 0.00 | 60 | 1007.9 |
| 20260508041007 | 49 | 221 | 0.0 | 2.0 | 0.00 | 0.38 | 0.00 | 60 | 1007.9 |
| 20260508040504 | 49 | 221 | 0.0 | 2.0 | 0.00 | 0.38 | 0.00 | 60 | 1007.9 |
| 20260508040027 | 49 | 221 | 0.0 | 1.0 | 0.00 | 0.38 | 0.00 | 61 | 1007.9 |
| 20260508035504 | 49 | 221 | 0.0 | 0.0 | 0.00 | 0.38 | 0.38 | 60 | 1007.9 |
| 20260508035006 | 50 | 221 | 0.0 | 2.0 | 0.00 | 0.38 | 0.38 | 60 | 1007.9 |
| 20260508034509 | 50 | 221 | 0.0 | 2.0 | 0.00 | 0.38 | 0.38 | 59 | 1007.9 |
| 20260508034005 | 50 | 221 | 0.0 | 2.0 | 0.00 | 0.38 | 0.38 | 58 | 1007.9 |
| 20260508033504 | 50 | 221 | 0.0 | 2.0 | 0.00 | 0.38 | 0.38 | 57 | 1007.9 |
| 20260508033018 | 50 | 221 | 0.0 | 2.0 | 0.00 | 0.38 | 0.38 | 59 | 1007.9 |
| 20260508032506 | 50 | 216 | 0.0 | 2.0 | 0.00 | 0.38 | 0.38 | 59 | 1007.8 |
| 20260508032007 | 51 | 214 | 0.0 | 2.0 | 0.00 | 0.38 | 0.38 | 58 | 1007.9 |
| 20260508031521 | 51 | 214 | 1.0 | 2.0 | 0.00 | 0.38 | 0.38 | 58 | 1008.0 |
| 20260508031014 | 51 | 211 | 0.0 | 3.0 | 0.00 | 0.38 | 0.38 | 57 | 1008.0 |
| 20260508030508 | 51 | 215 | 1.0 | 3.0 | 0.00 | 0.38 | 0.38 | 57 | 1008.0 |
| 20260508030025 | 51 | 219 | 0.0 | 2.0 | 0.00 | 0.38 | 0.38 | 57 | 1008.1 |
| 20260508025510 | 51 | 224 | 0.0 | 2.0 | 0.00 | 0.38 | 0.38 | 58 | 1008.1 |
| 20260508025007 | 51 | 224 | 1.0 | 3.0 | 0.00 | 0.38 | 0.38 | 57 | 1008.1 |
| 20260508024519 | 51 | 220 | 1.0 | 3.0 | 0.00 | 0.38 | 0.38 | 57 | 1008.1 |
| 20260508024004 | 51 | 225 | 0.0 | 2.0 | 0.00 | 0.38 | 0.38 | 58 | 1008.1 |
| 20260508023503 | 51 | 221 | 0.0 | 2.0 | 0.00 | 0.38 | 0.38 | 57 | 1008.1 |
| 20260508023012 | 52 | 227 | 0.0 | 2.0 | 0.00 | 0.38 | 0.38 | 57 | 1008.1 |
| 20260508022506 | 52 | 223 | 1.0 | 4.0 | 0.00 | 0.38 | 0.38 | 56 | 1008.2 |
| 20260508022006 | 52 | 228 | 1.0 | 4.0 | 0.00 | 0.38 | 0.38 | 57 | 1008.1 |
| 20260508021518 | 52 | 224 | 1.0 | 3.0 | 0.00 | 0.38 | 0.38 | 57 | 1008.2 |
| 20260508021005 | 52 | 220 | 1.0 | 3.0 | 0.00 | 0.38 | 0.38 | 57 | 1008.0 |
| 20260508020508 | 52 | 227 | 0.0 | 3.0 | 0.00 | 0.38 | 0.38 | 58 | 1007.9 |
| 20260508020019 | 52 | 224 | 1.0 | 2.0 | 0.00 | 0.38 | 0.38 | 58 | 1008.0 |
| 20260508015507 | 52 | 221 | 1.0 | 2.0 | 0.00 | 0.38 | 0.38 | 58 | 1008.0 |
| 20260508015008 | 52 | 223 | 0.0 | 2.0 | 0.00 | 0.38 | 0.38 | 58 | 1008.0 |
| 20260508014523 | 52 | 221 | 0.0 | 2.0 | 0.00 | 0.38 | 0.38 | 58 | 1008.1 |
| 20260508014010 | 53 | 219 | 1.0 | 2.0 | 0.00 | 0.38 | 0.38 | 59 | 1008.0 |
| 20260508013503 | 53 | 226 | 0.0 | 3.0 | 0.00 | 0.38 | 0.38 | 59 | 1007.9 |
| 20260508013014 | 53 | 208 | 1.0 | 3.0 | 0.00 | 0.38 | 0.38 | 58 | 1007.7 |
| 20260508012506 | 52 | 214 | 1.0 | 2.0 | 0.00 | 0.38 | 0.38 | 59 | 1007.6 |
| 20260508012008 | 52 | 228 | 1.0 | 3.0 | 0.00 | 0.38 | 0.38 | 59 | 1007.6 |
| 20260508011515 | 52 | 229 | 1.0 | 3.0 | 0.00 | 0.38 | 0.38 | 59 | 1007.5 |
| 20260508011007 | 52 | 228 | 1.0 | 2.0 | 0.00 | 0.38 | 0.38 | 61 | 1007.6 |
| 20260508010507 | 52 | 238 | 1.0 | 2.0 | 0.00 | 0.38 | 0.38 | 61 | 1007.5 |
| 20260508010020 | 51 | 228 | 1.0 | 2.0 | 0.00 | 0.38 | 0.38 | 63 | 1007.3 |
| 20260508005505 | 51 | 216 | 0.0 | 2.0 | 0.00 | 0.38 | 0.38 | 63 | 1007.2 |
| 20260508005009 | 51 | 212 | 0.0 | 2.0 | 0.00 | 0.38 | 0.38 | 65 | 1007.4 |
| 20260508004530 | 50 | 212 | 0.0 | 2.0 | 0.00 | 0.38 | 0.38 | 67 | 1007.5 |
| 20260508004013 | 50 | 212 | 0.0 | 2.0 | 0.00 | 0.38 | 0.38 | 68 | 1007.4 |
| 20260508003513 | 50 | 212 | 0.0 | 2.0 | 0.00 | 0.38 | 0.38 | 73 | 1007.2 |
| 20260508003027 | 50 | 212 | 0.0 | 0.0 | 0.00 | 0.39 | 0.38 | 74 | 1007.2 |
| 20260508002511 | 51 | 212 | 0.0 | 1.0 | 0.00 | 0.39 | 0.38 | 72 | 1007.0 |
| 20260508002006 | 51 | 212 | 0.0 | 1.0 | 0.00 | 0.39 | 0.38 | 77 | 1006.4 |
| 20260508001514 | 51 | 212 | 0.0 | 0.0 | 0.00 | 0.39 | 0.38 | 77 | 1006.2 |
| 20260508001005 | 51 | 212 | 0.0 | 0.0 | 0.00 | 0.39 | 0.38 | 76 | 1006.5 |
| 20260508000510 | 52 | 212 | 0.0 | 2.0 | 0.00 | 0.40 | 0.38 | 76 | 1006.5 |
| 20260508000018 | 52 | 212 | 0.0 | 2.0 | 0.00 | 0.40 | 0.38 | 74 | 1006.5 |
| 20260507235507 | 52 | 212 | 0.0 | 2.0 | 0.00 | 0.40 | 0.38 | 74 | 1006.4 |
| 20260507235005 | 53 | 212 | 0.0 | 2.0 | 0.00 | 0.40 | 0.38 | 73 | 1006.2 |
| 20260507234538 | 53 | 212 | 0.0 | 2.0 | 0.00 | 0.40 | 0.38 | 73 | 1006.3 |
| 20260507234007 | 53 | 212 | 0.0 | 2.0 | 0.00 | 0.40 | 0.38 | 73 | 1006.4 |
| 20260507233507 | 53 | 212 | 0.0 | 2.0 | 0.00 | 0.41 | 0.38 | 72 | 1006.3 |
| 20260507233028 | 53 | 188 | 0.0 | 3.0 | 0.00 | 0.42 | 0.38 | 72 | 1006.4 |
| 20260507232508 | 53 | 191 | 1.0 | 3.0 | 0.00 | 0.42 | 0.38 | 71 | 1006.3 |
| 20260507232008 | 54 | 203 | 0.0 | 2.0 | 0.00 | 0.43 | 0.38 | 70 | 1006.2 |
| 20260507231528 | 54 | 177 | 0.0 | 2.0 | 0.00 | 0.44 | 0.38 | 70 | 1006.1 |
| 20260507231011 | 54 | 185 | 0.0 | 3.0 | 0.00 | 0.45 | 0.38 | 70 | 1006.1 |
| 20260507230506 | 54 | 176 | 1.0 | 3.0 | 0.00 | 0.46 | 0.38 | 69 | 1006.0 |
| 20260507230017 | 54 | 200 | 1.0 | 3.0 | 0.00 | 0.47 | 0.38 | 69 | 1006.1 |
| 20260507225506 | 55 | 210 | 0.0 | 2.0 | 0.00 | 0.47 | 0.38 | 68 | 1006.0 |
| 20260507225007 | 55 | 205 | 2.0 | 2.0 | 0.00 | 0.48 | 0.38 | 67 | 1005.9 |
| 20260507224518 | 56 | 169 | 0.0 | 3.0 | 0.00 | 0.48 | 0.38 | 66 | 1005.8 |
| 20260507224003 | 56 | 196 | 1.0 | 4.0 | 0.00 | 0.48 | 0.38 | 64 | 1005.7 |
| 20260507223503 | 56 | 164 | 1.0 | 4.0 | 0.00 | 0.49 | 0.38 | 62 | 1005.7 |
| 20260507223007 | 56 | 153 | 1.0 | 3.0 | 0.00 | 0.50 | 0.38 | 62 | 1005.8 |
| 20260507222503 | 57 | 200 | 1.0 | 3.0 | 0.00 | 0.51 | 0.38 | 59 | 1005.8 |
| 20260507222003 | 57 | 176 | 0.0 | 4.0 | 0.00 | 0.51 | 0.38 | 59 | 1005.9 |
| 20260507221506 | 57 | 186 | 2.0 | 4.0 | 0.00 | 0.51 | 0.38 | 56 | 1005.9 |
| 20260507221006 | 57 | 160 | 1.0 | 5.0 | 0.00 | 0.51 | 0.38 | 57 | 1005.9 |
| 20260507220504 | 58 | 188 | 1.0 | 5.0 | 0.00 | 0.51 | 0.38 | 59 | 1005.9 |
| 20260507220011 | 58 | 165 | 2.0 | 4.0 | 0.00 | 0.51 | 0.38 | 56 | 1005.9 |
| 20260507215504 | 58 | 172 | 1.0 | 4.0 | 0.00 | 0.51 | 0.38 | 55 | 1005.8 |
| 20260507215004 | 58 | 181 | 1.0 | 4.0 | 0.00 | 0.51 | 0.38 | 54 | 1005.7 |
| 20260507214515 | 59 | 187 | 1.0 | 6.0 | 0.00 | 0.51 | 0.38 | 54 | 1005.8 |
| 20260507214007 | 59 | 221 | 2.0 | 6.0 | 0.00 | 0.51 | 0.38 | 53 | 1005.7 |
| 20260507213503 | 59 | 166 | 2.0 | 3.0 | 0.00 | 0.51 | 0.38 | 53 | 1005.8 |
| 20260507213007 | 59 | 179 | 1.0 | 3.0 | 0.00 | 0.51 | 0.38 | 55 | 1005.8 |
| 20260507212503 | 59 | 197 | 1.0 | 3.0 | 0.00 | 0.51 | 0.38 | 58 | 1005.8 |
| 20260507212003 | 59 | 160 | 0.0 | 4.0 | 0.00 | 0.51 | 0.38 | 56 | 1005.8 |
| 20260507211504 | 59 | 169 | 1.0 | 4.0 | 0.00 | 0.51 | 0.38 | 56 | 1005.7 |
| 20260507211005 | 59 | 200 | 1.0 | 4.0 | 0.00 | 0.51 | 0.38 | 58 | 1005.6 |
| 20260507210504 | 60 | 156 | 1.0 | 3.0 | 0.00 | 0.51 | 0.38 | 55 | 1005.7 |
| 20260507210010 | 60 | 191 | 2.0 | 4.0 | 0.00 | 0.51 | 0.38 | 59 | 1005.7 |
| 20260507205504 | 60 | 167 | 1.0 | 4.0 | 0.00 | 0.51 | 0.38 | 58 | 1005.7 |
| 20260507205005 | 59 | 219 | 0.0 | 4.0 | 0.00 | 0.51 | 0.38 | 60 | 1005.8 |
| 20260507204512 | 60 | 155 | 1.0 | 3.0 | 0.00 | 0.51 | 0.38 | 55 | 1005.6 |
| 20260507204004 | 60 | 187 | 1.0 | 4.0 | 0.00 | 0.51 | 0.38 | 55 | 1005.6 |
| 20260507203506 | 60 | 187 | 1.0 | 4.0 | 0.00 | 0.51 | 0.38 | 60 | 1005.6 |
| 20260507203018 | 59 | 221 | 1.0 | 4.0 | 0.00 | 0.51 | 0.38 | 61 | 1005.6 |
| 20260507202508 | 59 | 224 | 2.0 | 4.0 | 0.00 | 0.51 | 0.38 | 60 | 1005.6 |
| 20260507202002 | 59 | 140 | 2.0 | 3.0 | 0.00 | 0.51 | 0.38 | 58 | 1005.6 |
| 20260507201505 | 59 | 150 | 1.0 | 3.0 | 0.00 | 0.51 | 0.38 | 59 | 1005.5 |
| 20260507201002 | 58 | 176 | 1.0 | 3.0 | 0.00 | 0.51 | 0.38 | 60 | 1005.6 |
| 20260507200504 | 58 | 198 | 1.0 | 4.0 | 0.00 | 0.51 | 0.38 | 61 | 1005.7 |
| 20260507200007 | 58 | 155 | 2.0 | 4.0 | 0.00 | 0.51 | 0.38 | 61 | 1005.6 |
| 20260507195504 | 58 | 178 | 1.0 | 5.0 | 0.00 | 0.51 | 0.38 | 61 | 1005.6 |
| 20260507195009 | 58 | 115 | 2.0 | 5.0 | 0.00 | 0.51 | 0.38 | 61 | 1005.6 |
| 20260507194527 | 58 | 160 | 1.0 | 4.0 | 0.00 | 0.51 | 0.38 | 61 | 1005.8 |
| 20260507194006 | 58 | 195 | 2.0 | 3.0 | 0.00 | 0.51 | 0.38 | 68 | 1005.9 |
| 20260507193508 | 58 | 142 | 1.0 | 4.0 | 0.00 | 0.51 | 0.38 | 71 | 1006.0 |
| 20260507193018 | 59 | 173 | 2.0 | 4.0 | 0.00 | 0.51 | 0.38 | 70 | 1006.0 |
| 20260507192508 | 59 | 186 | 2.0 | 4.0 | 0.00 | 0.51 | 0.38 | 72 | 1005.9 |